Regional Weather Roundup
Issued by NWS

Home | Current Version | Previous Version | Text Only | Print | Product List | Glossary On
Versions: 1 2 3 4 5 6 7 8 9 10 11 12 13 14 15 16 17 18 19 20 21 22 23 24 25 26 27 28 29 30 31 32 33 34 35 36 37 38 39 40 41 42 43 44 45 46 47 48 49 50
000
ASUS44 KFWD 191201
RWRTX
NORTH TEXAS HOURLY WEATHER ROUNDUP
NATIONAL WEATHER SERVICE FORT WORTH TX
700 AM CDT SUN APR 19 2015

NOTE: "FAIR" INDICATES FEW OR NO CLOUDS BELOW 12,000 FEET WITH NO
SIGNIFICANT WEATHER AND/OR OBSTRUCTIONS TO VISIBILITY.

TXZ118-119-191300-
DALLAS/FORT WORTH METROPLEX

CITY           SKY/WX    TMP DP  RH WIND       PRES   REMARKS
DFW AIRPORT    MOCLDY    57  55  93 S9        29.71F
6HR MIN TEMP:  54; 6HR MAX TEMP:  59;

DALLAS LOVE    PTCLDY    59  55  87 SE13      29.73F
6HR MIN TEMP:  56; 6HR MAX TEMP:  60;

FTW MEACHAM    CLEAR     57  55  93 SE8       29.70F
6HR MIN TEMP:  56; 6HR MAX TEMP:  59;

DAL-EXECUTIVE  CLEAR     56  54  93 S7        29.72F
6HR MIN TEMP:  54; 6HR MAX TEMP:  58;

FTW-ALLIANCE   PTCLDY    55  55 100 S6        29.70F
6HR MIN TEMP:  53; 6HR MAX TEMP:  57;

FTW-NAS-JRB    PTCLDY    58  55  90 SE6       29.75F
6HR MIN TEMP:  57; 6HR MAX TEMP:  61;

FTW-SPINKS     MOCLDY    57  55  94 S9        29.73F
ARLINGTON      PTCLDY    58  54  86 SE8       29.72F
6HR MIN TEMP:  54; 6HR MAX TEMP:  59;

GRAND PRAIRIE  CLEAR     57  57 100 S3        29.74F
ADDISON        PTCLDY    57  55  94 SE7       29.72F
MESQUITE       MOCLDY    55  55 100 SE6       29.75F FOG
LANCASTER      PTCLDY    55  53  94 SE3       29.75F
6HR MIN TEMP:  53; 6HR MAX TEMP:  57;

$$

TXZ091>094-102>105-117-120-121-131>134-191300-
NORTH CENTRAL TEXAS

CITY           SKY/WX    TMP DP  RH WIND       PRES   REMARKS
BRIDGEPORT     CLEAR     52  52 100 CALM      29.71F
6HR MIN TEMP:  52; 6HR MAX TEMP:  58;

DENTON         CLEAR     55  54  96 E7        29.71F
6HR MIN TEMP:  53; 6HR MAX TEMP:  59;

MCKINNEY       MOCLDY    56  55  97 SE6       29.74S
6HR MIN TEMP:  54; 6HR MAX TEMP:  60;

ROCKWALL       PTCLDY    56  56 100 S5        29.74S
6HR MIN TEMP:  55; 6HR MAX TEMP:  58;

TERRELL        PTCLDY    57  55  93 S5        29.76F
6HR MIN TEMP:  56; 6HR MAX TEMP:  61;

WAXAHACHIE     CLEAR     55  55 100 SE6       29.75S
6HR MIN TEMP:  54; 6HR MAX TEMP:  57;

$$

TXZ083>090-098>101-113>116-127>130-139>142-154-155-191300-
WESTERN NORTH TEXAS

CITY           SKY/WX    TMP DP  RH WIND       PRES   REMARKS
WICHITA FALLS  PTCLDY    51  49  92 E7        29.70S
6HR MIN TEMP:  50; 6HR MAX TEMP:  58;

ABILENE        CLEAR     53  48  83 SW6       29.75R
6HR MIN TEMP:  53; 6HR MAX TEMP:  58;

MINERAL WELLS  CLEAR     54  53  97 S9        29.70R
6HR MIN TEMP:  53; 6HR MAX TEMP:  57;

STEPHENVILLE   CLOUDY    56  54  94 S3        29.75S VSB 3/4
6HR MIN TEMP:  55; 6HR MAX TEMP:  57;

COMANCHE       CLEAR     63  63 100 SW16G29   29.73S
6HR MIN TEMP:  51; 6HR MAX TEMP:  63; 6HR PCP:  0.04;

$$

TXZ143>147-156>162-174-175-191300-
CENTRAL TEXAS

CITY           SKY/WX    TMP DP  RH WIND       PRES   REMARKS
WACO           CLEAR     59  58  96 S7        29.75R
6HR MIN TEMP:  57; 6HR MAX TEMP:  60;

WACO-MCGREGOR  CLEAR     61  54  77 S9        29.76S
6HR MIN TEMP:  57; 6HR MAX TEMP:  61;

CORSICANA      CLOUDY    59  57  93 CALM      29.78R
6HR MIN TEMP:  56; 6HR MAX TEMP:  62;

MEXIA          CLEAR     56  56  97 S6        29.76S
6HR MIN TEMP:  55; 6HR MAX TEMP:  59;

HEARNE         PTCLDY    56  56 100 SE3       29.80R
6HR MIN TEMP:  55; 6HR MAX TEMP:  60; 6HR PCP:  0.01;

TEMPLE         MOCLDY    61  57  88 S14       29.75S
6HR MIN TEMP:  55; 6HR MAX TEMP:  63;

KILLEEN        NOT AVBL
LAMPASAS       CLEAR     62  61  97 SW7       29.76R
6HR MIN TEMP:  55; 6HR MAX TEMP:  62;

$$

TXZ095>097-106>112-122>126-135>138-148>153-164>167-191300-
EAST TEXAS

CITY           SKY/WX    TMP DP  RH WIND       PRES   REMARKS
PARIS          CLEAR     55  52  88 MISG      29.76S
6HR MIN TEMP:  55; 6HR MAX TEMP:  61; 6HR PCP:  0.03;

TYLER          CLOUDY    58  55  90 SW6       29.78S
6HR MIN TEMP:  58; 6HR MAX TEMP:  60; 6HR PCP:  0.03;

LONGVIEW       PTCLDY    58  55  90 SW6       29.78R
6HR MIN TEMP:  58; 6HR MAX TEMP:  60; 6HR PCP:  0.10;

PALESTINE      MOCLDY    54  53  97 CALM      29.80S FOG
JACKSONVILLE   FOG       57  56  98 CALM      29.81S VSB 1/4
NACOGDOCHES    PTCLDY    55  52  88 CALM      29.81R
6HR MIN TEMP:  55; 6HR MAX TEMP:  61; 6HR PCP:  0.09;

LUFKIN         FOG       61  57  87 S3        29.81R VSB 1/2
6HR MIN TEMP:  61; 6HR MAX TEMP:  63; 6HR PCP: TRACE;

$$

SUPPLEMENTAL OBSERVATIONS (CENTRAL)

CITY           SKY/WX    TMP DP  RH WIND       PRES   REMARKS
$$

SUPPLEMENTAL OBSERVATIONS (WEST)

CITY           SKY/WX    TMP DP  RH WIND       PRES   REMARKS
$$

SUPPLEMENTAL OBSERVATIONS (EAST)

CITY           SKY/WX    TMP DP  RH WIND       PRES   REMARKS
$$

SUPPLEMENTAL OBSERVATIONS ARE A COLLECTION OF AUTOMATED INSTRUMENTS
THAT ARE MAINTAINED BY A VARIETY OF FEDERAL AND STATE AGENCIES.
CERTAIN ELEMENTS...SUCH AS HUMIDITY VALUES AND SUSTAINED WIND
SPEEDS...MAY BE APPROXIMATED.



USA.gov is the U.S. government's official web portal to all federal, state and local government web resources and services.